Погода в Дашогузе

Поиск расширенной информации на нашем сайте:

Полезная информация:

Новости сайта



02.01.2020
Опубликован Долгосрочный прогноз погоды по городам России и ближнего зарубежья на январь 2020 года.
Карты: Прогноз на январь и февраль 2020 года, Сравнение прогнозируемой аномалии приземной температуры воздуха на январь 2020 года по разным моделям.




Погода в Дашогузе - сегодня

Время (UTC), дата Ветер
(°,м/с) 
Видим.   Явления Облачность Т
(°С)
Тd
(°С)
f(%) Тe
(°С)
Pmin
(гПа)
dP
(гПа)
Po
(мм)
O2
(г/м3)
Тmin Tmax R s Состояние
почвы
12 16.04.21 320 (СЗ) 10 км    6/0 средняя 
[Ac cuf]
+28 +1.3 18 +28  1014.4  -1.1  754  275           
15 16.04.21 220 (ЮЗ) 10 км    10/3 2000 м кучево-дожд., средняя 
[Cb cap|Ac trans]
+23.5 +5.3 31 +24  1015.5  754  279    +29       
18 16.04.21 230 (ЮЗ) 10 км    5/0 средняя 
[Ac trans]
+19.2 +6.7 44 +20  1016  0.4  755  283    +29       
21 16.04.21 210 (ЮЗ) 10 км    5/0 средняя 
[Ac trans]
+17.4 +3.8 40 +18  1016.3  0.2  755  285           
00 17.04.21 220 (ЮЗ) 10 км    5/0 средняя 
[Ac trans]
+14.4 +2.9 46 +14  1016.7  0.3  755  289           
03 17.04.21 270 (З) 10 км    5/0 средняя 
[Ac trans]
+14.5 +2.1 43 +14  1018  1.3  756  289  +13        сухая 
06 17.04.21 320 (СЗ) 10 км    3/0 верхняя 
[Ci fib]
+21.8 +2.3 28 +22  1018.6  0.8  757  282  +13         
09 17.04.21 300 (СЗ) 10 км    ясно 
+26.9 -3.3 14 +27  1018  -0.4  756  278           
12 17.04.21 340 (С) 10 км    ясно 
+27.7 -4.4 12 +28  1017.2  -0.8  756  277           
15 17.04.21 300 (СЗ) 10 км    ясно 
+24.8 -0.7 19 +25  1017.7  0.5  756  279    +28.6       
18 17.04.21 320 (СЗ) 10 км    ясно 
+19 +2.3 33 +20  1019.2  1.3  757  285    +28.6       
21 17.04.21 040 (СВ) 10 км    ясно 
+17.2 +2.5 37 +18  1019.2  -0.1  757  287           
00 18.04.21 040 (СВ) 10 км    ясно 
+15 +2.3 42 +16  1019.5  0.1  757  289           
03 18.04.21 040 (СВ) 10 км    9/0 средняя 
[Ac trans]
+12.3 +2.5 51 +14  1020.3  0.8  758  292  +9.9        сухая 
06 18.04.21 110 (В) 10 км    9/0 средняя 
[Ac trans]
+25.6 -0.2 18 +26  1020.1  0.2  758  279  +9.9         
09 18.04.21 180 (Ю) 10 км    9/0 средняя 
[Ac trans]
+26.6 +0.2 18 +27  1018.3  -1.7  757  278           
12 18.04.21 140 (ЮВ) 10 км    9/0 средняя 
[Ac trans]
+27 -1.4 15 +27  1016.6  -1.7  755  277           
15 18.04.21 090 (В) 10 км    9/0 средняя 
[Ac trans]
+23.6 +1.9 24 +24  1016.3  -0.4  755  280    +27.7       
18 18.04.21 110 (В) 10 км    9/0 средняя 
[Ac trans]
+19.6 +3.2 34 +20  1016.3  -0.1  755  283    +27.7       
21 18.04.21 110 (В) 10 км    6/0 средняя 
[Ac trans]
+16.8 +2.9 39 +17  1015.1  -1.3  754  286           
00 19.04.21 110 (В) 10 км    6/0 средняя 
[Ac trans]
+16.3 +4.1 44 +17  1013.9  -1.2  753  286           
03 19.04.21 140 (ЮВ) 10 км    9/0 средняя 
[Ac trans]
+15.9 +5.5 50 +17  1013.7  -0.2  753  286  +15        сухая 
06 19.04.21 190 (Ю) 10 км    9/3 2000 м кучево-дожд., средняя 
[Cb cap|Ac trans]
+24.7 +5.5 29 +25  1013  -0.4  753  277  +15         
09 19.04.21 170 (Ю) 10 км    8/0 средняя, верхняя 
[Ac trans|Ci fib]
+28 +4 22 +28  1011.4  -1.5  751  274           
12 19.04.21 240 (ЮЗ) 10 км    10/3 2000 м кучево-дожд., средняя, верхняя 
[Cb cap|Ac trans|Ci fib]
+29.5 +3 18 +30  1009.8  -1.6  750  272           
Время (UTC), дата Ветер
(°,м/с) 
Видим.   Явления Облачность Т
(°С)
Тd
(°С)
f(%) Тe
(°С)
Pmin
(гПа)
dP
(гПа)
Po
(мм)
O2
(г/м3)
Тmin Tmax R s Состояние
почвы

Для получения пояснительной информации подведите курсор к названию столбца.

ПОГОДА в Дашогузе - архив

Всё, что Вы хотите узнать о погоде в Дашогузе - удобно и подробно!

Выберите нужную дату (начиная с 1 января 2019* года) и нажмите кнопку "Найти".
Будут отображены архивные сводки погоды по пункту Дашогуз, начиная с указанной даты.


Отображать данные в формате CSV (для использования в таблицах Excel)


Внимание! Наш архив погоды предназначен исключительно для личного некоммерческого использования в познавательных целях. Если Вам необходимы официальные справки о состоянии погоды (для производственных, юридических, коммерческих и т.п. целей), обращайтесь в органы Росгидромета.

*Примечание: данная дата относится к архиву по метеостанциям СССР (Россия, СНГ, Балтия).
Архив по метеостанциям Зарубежной Европы и Азии (кроме Китая) хранится 10 дней, по другим регионам земного шара (Китай, Африка, Америка, Австралия, Океания) - 1 день.

Дашогуз - район местоположения метеостанции


Название, широта, долгота, высота метеостанции:
Дашогуз (Ташауз) 41.8°ш. 59.8°д. 82 м над ур. моря [Туркменистан]

Дополнительная информация

В oтличие oт бoльшинства пoгoдных сайтoв мы публикуем пoдрoбную метеoинфoрмацию в детальнoм прoфессиoнальнoм фoрмате.

Характеристики температуры и влажнoсти вoздуха измеряются на высoте 2 м в тени вдали oт зданий и деревьев.
Скoрoсть ветра измеряется на высoте 10 м (на урoвне рoста челoвека скoрoсть ветра ниже в 1.5-2 раза). Если метеoстанция нахoдится в гoрoде или в лесу, тo скoрoсть ветра занижена на 2-4 м/с пo сравнению с oткрытым местoм. Скoрoсть ветра над акватoриями крупных рек и oзёр, а также на вершинах хoлмoв на 2-5 м/с выше, чем в oбычных услoвиях.
Атмoсфернoе давление в разных тoчках местнoсти мoжет значительнo oтличаться oт давления на метеoстанции, в зависимoсти oт услoвий рельефа (при пoдъёме на 10 м давление пoнижается примернo на 1 мм рт.ст.).